Regional Weather Roundup
Issued by NWS

Home | Current Version | Previous Version | Graphics & Text | Print | Product List | Glossary On
Versions: 1 2 3 4 5 6 7 8 9 10 11 12 13 14 15 16 17 18 19 20 21 22 23 24 25 26 27 28 29 30 31 32 33 34 35 36 37 38 39 40 41 42 43 44 45 46 47 48 49 50
000
ASUS45 KBOU 290307
RWRCO

WEATHER ROUNDUP FOR COLORADO
NATIONAL WEATHER SERVICE DENVER/BOULDER CO
900 PM MDT THU JUL 28 2016

NOTE: "FAIR" INDICATES FEW OR NO CLOUDS BELOW 12000 FEET WITH NO
SIGNIFICANT WEATHER AND/OR OBSTRUCTIONS TO VISIBILITY.

COZ001>005-013-030-031-290400-
...NORTHWEST COLORADO...

CITY           SKY/WX    TMP DP  RH WIND       PRES   REMARKS
CRAIG          FAIR      76  33  21 NW3       30.14R
HAYDEN         FAIR      77  28  16 S7        30.17R
MEEKER         FAIR      74  35  24 E6        30.15S
MOUNT WERNER   NOT AVBL
STEAMBOAT SPGS FAIR      72  40  31 E7        30.19S
WALDEN         FAIR      61  39  44 E8        30.33S
$$

COZ006>008-011-290400-
...WEST CENTRAL VALLEYS...

CITY           SKY/WX    TMP DP  RH WIND       PRES   REMARKS
GRAND JUNCTION FAIR      82  31  15 E3        29.98S
MONTROSE       FAIR      86  36  16 SW5       30.11R
EAGLE          FAIR      84  28  13 N6        30.19R
RIFLE          FAIR      83  29  14 S3        30.07R
DELTA          NOT AVBL
NUCLA          NOT AVBL
$$

COZ017>023-064>068-290400-
...SOUTHWEST COLORADO...

CITY           SKY/WX    TMP DP  RH WIND       PRES   REMARKS
DURANGO        FAIR      77  33  20 CALM      30.19S
CORTEZ         FAIR      90  28  11 MISG      30.11F
PAGOSA SPRINGS FAIR      71  34  25 CALM      30.30R
TELLURIDE      FAIR      69  32  25 SE7       30.45R
WOLF CREEK PAS FAIR      59  30  33 SW5       30.71S
$$

COZ009-010-012-014-032>034-037-058>063-290400-
...CENTRAL COLORADO...

CITY           SKY/WX    TMP DP  RH WIND       PRES   REMARKS
ASPEN          FAIR      63  39  41 S9        30.28S
BUENA VISTA    FAIR      69  24  18 W6        30.32R
COPPER MTN     FAIR      59  19  21 CALM      30.69S
BERTHOUD PASS  HAZE      45  30  57 NE3       30.72S THUNDER VSB 1/4
COTTONWOOD PAS FAIR      72  10   9 SW9       30.49S
GUNNISON       FAIR      72  34  25 N6        30.31S
KREMMLING      FAIR      70  28  21 W3        30.26S
LEADVILLE      FAIR      66  21  18 CALM      30.47S
MONARCH PASS   FAIR      59  23  25 N17       30.79S
SALIDA         FAIR      78  38  24 SE7       30.34S
SUNLIGHT       NOT AVBL
WILKERSON PASS FAIR      52  45  76 E12G20    30.64F
$$

COZ069>075-290400-
...SAN LUIS VALLEY/SANGRE DE CRISTO MOUNTAINS...

CITY           SKY/WX    TMP DP  RH WIND       PRES   REMARKS
ALAMOSA        FAIR      70  41  34 E10G18    30.25R
LA VETA PASS   FAIR      57  37  47 CALM      30.54R
SAGUACHE       FAIR      72  27  18 NE8       30.29R
$$

COZ035-036-038>040-290400-
...NORTHERN COLORADO FRONT RANGE...

CITY           SKY/WX    TMP DP  RH WIND       PRES   REMARKS
DENVER INTL AP MOCLDY    71  57  61 E14       30.22R
DMNS CITY PARK   N/A     73  56  55 E8        30.23R
AURORA         NOT AVBL
FRONT RANGE AP MOCLDY    72  59  64 NE9       30.24R
ERIE MUNI ARPT FAIR      73  53  50 CALM      30.21R
BOULDER MUN AP FAIR      72  54  53 CALM      30.22S
CENTENNIAL     CLOUDY    71  57  61 E9        30.26R
BROOMFIELD     MOCLDY    73  54  49 N8        30.25
LONGMONT       NOT AVBL
$$

COZ041-046-047-076>085-087-088-290400-
...PIKES PEAK/PALMER DIVIDE AND SOUTHERN FOOTHILLS...

CITY           SKY/WX    TMP DP  RH WIND       PRES   REMARKS
COLO. SPRINGS  CLOUDY    73  58  59 NE30G41   30.19F THUNDER
A. F. ACADEMY  NOT AVBL
SCHRIEVER AFB  NOT AVBL
ELLICOTT       NOT AVBL
FALCON         MOCLDY    69  59  70 NE18G24   30.30R
FORT CARSON    NOT AVBL
LIMON          CLOUDY    68  60  75 NE20G28   30.21R
MONUMENT HILL  CLOUDY    64  55  72 NE15      30.34R
TRINIDAD       NOT AVBL
$$

COZ042>045-048>051-090-091-290400-
...NORTHEAST COLORADO...

CITY           SKY/WX    TMP DP  RH WIND       PRES   REMARKS
GREELEY ARPT   FAIR      70  57  64 E3        30.19R
AKRON          FAIR      67  60  78 NE14G28   30.15F
BURLINGTON     MOCLDY    70  61  73 NE10      30.18R
WRAY           NOT AVBL
STERLING       NOT AVBL
HOLYOKE        NOT AVBL
FORT MORGAN    NOT AVBL
$$

COZ086-089-092>099-290400-
...SOUTHEAST COLORADO...

CITY           SKY/WX    TMP DP  RH WIND       PRES   REMARKS
PUEBLO         FAIR      76  54  46 E12       30.06R
LA JUNTA       TSTM      75  56  51 S25G39    30.05R
LAMAR          MOCLDY    82  57  42 E9        30.04R
SPRINGFIELD      N/A     74  54  49 S12       30.05R
$$



USA.gov is the U.S. government's official web portal to all federal, state and local government web resources and services.